Location: Kearney
(40.6990°N, 99.0810°W)
Time: 11:56:44
(UTC-06:00)

Daily predictions for brighter satellites

Satellite Brightness Start Highest point End
(mag) Time Altitude Azimuth Time Altitude Azimuth Time Altitude Azimuth
BREEZE M DEB (TANK) 3.7 17:28:35 10° NW 17:30:58 23° NNE 17:35:35 10° ENE
ASTEX 1 4.5 17:29:52 10° N 17:34:42 49° W 17:39:30 10° SSW
SPOT 3 Rocket 3.9 17:30:12 10° SE 17:35:05 44° ENE 17:40:00 10° N
CZ-3B DEB 1.9 17:35:23 10° SSW 17:38:31 67° SE 17:46:17 10° NE
COSMOS 2487 4.3 17:37:40 10° NNE 17:39:28 13° ENE 17:41:15 10° E
SMAP 3.3 17:36:32 10° SE 17:40:57 45° ENE 17:45:23 10° N
Ariane Rocket 4.2 17:36:19 10° S 17:41:12 48° W 17:46:07 10° NNW
NOSS 3-3 (A) 4.4 17:35:31 10° S 17:41:18 45° ESE 17:47:30 10° NE
NOSS 3-3 (C) 4.4 17:35:38 10° S 17:41:25 45° ESE 17:47:35 10° NE
CSL-04 Rocket 4.4 17:36:12 10° S 17:41:35 62° WSW 17:47:05 10° NNW
USA 32 4.1 17:40:23 10° S 17:45:30 62° E 17:50:40 10° NNE
Cosmos 494 Rocket 4.2 17:41:53 10° N 17:47:00 50° ENE 17:52:06 10° SE
ATLAS 2AS CENTAUR R/B 3.0 17:42:05 10° NNW 17:50:13 76° NE 17:57:46 10° SE
Cosmos 1812 2.9 17:49:58 10° SSE 17:53:41 49° E 17:57:26 10° NNE
Cosmos 1544 Rocket 3.6 17:49:28 10° N 17:53:55 68° E 17:58:21 10° SSE
Cosmos 1238 Rocket 2.2 17:51:37 10° S 17:54:28 50° E 17:57:26 10° NNE
Cosmos 1844 Rocket 3.1 17:49:52 10° SSW 17:55:25 67° WNW 18:01:03 10° NNE
SL-8 R/B 3.7 17:51:32 10° SW 17:56:18 80° SSE 18:00:39 13° ENE
OPS 8737 4.2 17:52:56 10° SSW 17:56:19 90° E 17:59:29 10° NE
COSMO-SKYMED 1 3.7 17:53:24 10° NE 17:56:54 23° E 18:00:23 10° SSE
Cosmos 1975 Rocket 4.0 17:53:23 10° SSW 17:57:35 51° W 18:01:49 10° N
IDEFIX/ARIANE 42P 2.5 17:52:40 10° SSE 17:57:49 69° ENE 18:02:59 10° N
Okean 1 3.8 17:54:23 10° SSE 17:58:09 39° E 18:01:57 10° NNE
USA 116 4.5 17:53:29 10° NNE 17:58:54 79° ESE 18:04:03 10° S
CZ-2C R/B 2.4 17:56:00 10° SSE 18:00:57 76° ENE 18:06:06 10° N
CRYOSAT 2 4.4 17:57:58 10° N 18:02:54 89° W 18:07:47 10° S
SJ-7 4.4 17:59:33 10° SSE 18:03:45 68° ENE 18:07:59 10° N
Meteor 1-18 Rocket 4.2 17:59:25 10° S 18:05:00 71° E 18:10:45 10° NNE
CORIOLIS 4.1 18:03:42 10° SSE 18:09:06 78° ENE 18:14:31 10° N
Thor Agena Rocket 3.6 18:06:05 10° NNE 18:11:19 87° WNW 18:16:35 10° SSW
Cosmos 1346 Rocket 3.3 18:07:52 10° SSE 18:11:27 36° E 18:14:56 11° NNE
Cosmos 864 Rocket 4.5 18:06:54 10° N 18:13:13 80° E 18:19:32 10° S
Cosmos 1536 Rocket 3.5 18:09:43 10° S 18:14:09 72° E 18:18:38 10° NNE
Nadezhda 3 Rocket 4.4 18:08:38 10° SSE 18:14:22 41° E 18:20:11 10° NNE
CZ-4 R/B 4.3 18:11:25 10° SSE 18:15:32 73° ENE 18:19:41 10° N
Cosmos 1844 4.1 18:10:11 10° SW 18:15:40 61° WNW 18:21:12 10° NNE
Cosmos 2297 4.2 18:13:19 10° S 18:18:31 40° ESE 18:22:45 15° NE
Cosmos 375 4.4 18:14:27 10° NNW 18:18:52 58° NE 18:22:39 10° SE
SL-27 R/B 4.0 18:15:47 10° NNW 18:19:14 40° WSW 18:22:38 10° S
Cosmos 2251 Rocket 3.9 18:15:21 10° NNW 18:20:41 70° WSW 18:25:57 10° S
Cosmos 1025 Rocket 4.4 18:19:02 10° SE 18:21:58 19° E 18:21:58 19° E
OE (NEXTSAT) 4.4 18:18:45 10° WSW 18:22:19 77° SSE 18:24:13 26° ENE
YAOGAN 1 2.9 18:18:08 10° S 18:22:27 70° W 18:26:46 10° NNW
Tiangong 1 1.7 18:20:21 10° SW 18:23:14 42° SSE 18:24:26 27° ESE
Intercosmos 25 3.7 18:22:44 10° NNE 18:25:35 28° ENE 18:28:27 10° SE
Cosmos 921 Rocket 3.7 18:22:02 10° SSE 18:25:48 32° E 18:27:31 23° ENE
BREEZE-M R/B 4.4 18:17:17 10° WSW 18:28:57 83° NNW 18:32:39 22° NE
Cosmos 2278 Rocket 2.3 18:25:49 10° SSW 18:31:28 76° WNW 18:37:09 10° NNE
BREEZE-M DEB (TANK) 4.4 18:25:35 10° WNW 18:32:01 29° N 18:34:26 19° NE
NOSS 2-1 (D) 4.0 18:32:59 10° S 18:36:27 34° ESE 18:37:14 31° E
NOSS 2-1 (C) 4.0 18:33:40 10° S 18:37:09 34° ESE 18:37:52 31° E
CZ-4 R/B 3.6 18:35:48 10° SSW 18:39:28 29° W 18:43:07 10° NW
NOAA 12 4.4 18:36:29 10° SE 18:41:25 41° ENE 18:46:19 10° N
Genesis I 3.0 18:37:58 10° NNW 18:41:55 80° ENE 18:45:49 10° SE
Cosmos 1455 Rocket 4.3 18:38:57 10° NNW 18:43:07 43° W 18:47:18 10° SSW
MSX 4.1 18:38:05 10° S 18:43:47 71° WSW 18:49:33 10° NNW
Cosmos 1975 3.3 18:40:25 10° NNW 18:44:26 61° W 18:48:24 10° S
SKYMED 2 3.4 18:40:57 11° NNE 18:45:10 81° ESE 18:49:30 10° S
Meteor 1-19 Rocket 4.3 18:43:54 10° S 18:49:33 59° E 18:55:07 11° NNE
Okean 1-7 Rocket 3.5 18:47:41 10° S 18:52:10 67° E 18:54:52 23° NNE
Delta 2 Rocket 4.3 18:49:42 10° SW 18:53:12 33° SSE 18:54:13 29° SE
METEOR-M 4.3 18:48:23 10° SE 18:53:26 45° ENE 18:58:31 10° N
Cosmos 1743 2.6 18:50:29 10° N 18:54:21 64° E 18:58:09 10° SSE
Cosmos 1484 Rocket 3.1 18:51:36 10° S 18:55:19 63° W 18:59:02 10° NNW
NOSS 2-1 (E) 3.5 18:51:57 10° SSW 18:55:41 50° ESE 18:55:54 49° ESE
Cosmos 1833 Rocket 2.7 18:51:03 10° NNW 18:56:37 58° ENE 19:02:09 10° SE
Cosmos 2082 Rocket 2.1 18:51:40 10° NNW 18:57:20 69° ENE 19:02:59 10° SSE
ISS -0.9 18:55:42 10° NW 18:57:42 15° NNW 18:57:42 15° NNW
Cosmos 1500 4.3 18:57:32 10° NNW 19:01:13 45° W 19:04:53 10° SSW
Abrixas 4.2 18:59:15 10° NW 19:00:48 25° NNW 19:00:48 25° NNW
Meteor 1-28 Rocket 3.0 19:05:42 72° NNE 19:06:02 84° ESE 19:09:50 10° S
Cosmos 2056 Rocket 3.9 19:02:16 10° S 19:06:59 42° ESE 19:06:59 42° ESE
Meteor 1-13 Rocket 4.3 19:02:35 10° SSW 19:08:14 79° W 19:14:04 10° N
Cosmos 1934 Rocket 4.0 19:02:50 10° N 19:08:56 58° E 19:15:07 10° SSE
Cosmos 1535 Rocket 4.4 19:04:15 10° N 19:10:34 76° E 19:16:46 10° SSE
USA 234 4.2 19:06:45 20° NNE 19:10:36 38° NNW 19:16:31 10° W
GEOS 3 Rocket 3.4 19:11:18 31° SE 19:13:50 82° NE 19:18:59 10° NNW
COSMOS 2487 4.0 19:11:49 10° NW 19:15:11 38° WSW 19:18:30 10° S
Meteor 1-23 Rocket 4.1 19:11:50 10° S 19:17:29 64° E 19:18:39 51° NE
Cosmos 1624 Rocket 4.0 19:15:47 10° S 19:20:30 59° SE 19:20:30 59° SE
Cosmos 1371 Rocket 3.9 19:20:16 10° SSW 19:25:36 84° ESE 19:26:23 66° NNE
Cosmos 2239 Rocket 4.5 19:19:45 10° N 19:25:59 81° W 19:32:07 10° S
Timation 2 Rocket 4.5 19:19:11 10° NNW 19:25:59 68° WSW 19:32:47 10° SSE
NOSS 3-4 (A) 3.8 19:19:06 10° NNW 19:26:00 58° NE 19:27:09 52° E
NOSS 3-4 (C) 3.8 19:19:12 10° NNW 19:26:06 57° NE 19:27:11 52° E
Meteor 2-4 Rocket 3.5 19:24:06 10° S 19:29:29 87° W 19:30:53 52° N
Meteor 2-8 Rocket 4.2 19:24:38 10° S 19:30:41 77° E 19:32:27 48° NNE
COSMO-SKYMED 1 4.4 19:29:32 11° N 19:33:03 30° WNW 19:36:49 10° SW
Meteor 2-9 Rocket 3.9 19:28:45 10° N 19:34:13 88° E 19:39:33 10° S
Cosmos 1821 Rocket 4.1 19:30:07 10° NNW 19:36:11 70° W 19:42:13 10° S
BREEZE M DEB (TANK) 3.3 19:31:51 10° WSW 19:37:18 46° WNW 19:37:18 46° WNW
Cosmos 1605 Rocket 4.4 19:40:23 10° N 19:53:17 - S 19:44:57 50° N
CZ-3B DEB 4.2 20:09:04 10° WNW 20:14:49 37° N 20:16:19 35° NNE
ATLAS 3B CENTAUR R/B 4.2 20:19:10 10° WSW 20:30:29 31° SSW 20:31:11 30° SSW
FALCON 9 R/B 3.7 20:28:30 10° W 20:40:12 46° SW 20:40:12 46° SW
